Weather Roundup
Issued by NWS Chicago, IL

Home | Current Version | Previous Version | Text Only | Print | Product List | Glossary Off
Versions: 1 2 3 4 5 6 7 8 9 10 11 12 13 14 15 16 17 18 19 20 21 22 23 24 25 26 27 28 29 30 31 32 33 34 35 36 37 38 39 40 41 42 43 44 45 46 47 48 49 50

000
NZUS59 KLOT 251412
HRRLOT

CHICAGO AREA WEATHER ROUNDUP
NATIONAL WEATHER SERVICE CHICAGO/ROMEOVILLE IL
900 AM CDT MON MAY 25 2015

NOTE: "FAIR" INDICATES FEW OR NO CLOUDS BELOW 12,000 FEET WITH NO
SIGNIFICANT WEATHER AND/OR OBSTRUCTIONS TO VISIBILITY.

* THESE STATIONS ARE NOT UNDER NWS QUALITY CONTROL. THEY ALSO MAY NOT
  REPORT WEATHER SUCH AS PRECIPITATION OR FOG.

ILZ005-006-012>014-019>023-251500-
NORTHEAST ILLINOIS

CITY           SKY/WX    TMP DP  RH WIND       PRES   REMARKS
OHARE          PTSUNNY   72  63  73 S23G31    29.84R
MIDWAY         PTSUNNY   75  65  70 S15G25    29.86R
AURORA         CLOUDY    69  64  84 SW20G25   29.86R HAZE
LANSING*       CLOUDY    72  64  75 S22G29    29.89R
JOLIET*        CLOUDY    74  66  76 SW17G28   29.87R
WAUKEGAN       PTSUNNY   72  63  73 S25G33    29.81S
DUPAGE AIRPORT LGT RAIN  69  64  84 S23G35    29.85R
WHEELING       CLOUDY    72  62  71 S23G33    29.85R
KANKAKEE*      CLOUDY    73  65  78 S25G35    29.91R
MORRIS*        HVY RAIN  69  64  84 SW20G32   29.86R
LEWIS AIRPORT* CLOUDY    72  64  75 SW26G33   29.86S
NORTHERLY IS     N/A     73  62  68 S18         N/A
$$

WIZ051-052-058>065-066-070>072-251500-
SOUTHEAST WISCONSIN

CITY           SKY/WX    TMP DP  RH WIND       PRES   REMARKS
MILWAUKEE      LGT RAIN  68  63  84 S15G22    29.79S
KENOSHA*       CLOUDY    71  64  78 SW18G30   29.80F
RACINE*        CLOUDY    70  63  78 SW18G25   29.82S
BURLINGTON     RAIN      65  64  94 S17G23    29.80S
WAUKESHA       LGT RAIN  64  63  94 S12       29.80S FOG
WEST BEND      CLOUDY    64  63  94 S7        29.77S FOG
$$

INZ001>003-010>013-019-020-251500-
NORTHWEST INDIANA

CITY           SKY/WX    TMP DP  RH WIND       PRES   REMARKS
GARY*          PTSUNNY   73  68  83 S14G29    29.88S
MICHIGAN CITY* NOT AVBL
RENSSELAER*    NOT AVBL
VALPARAISO     CLOUDY    72  64  76 SW20G36   29.92S
$$

LMZ740>746-251500-
SOUTHERN LAKE MICHIGAN

STATION/POSITION TIME  SKY/WX   TEMP WIND        PRES    VSBY
                                AIR  DIR/SP/G
                 (UTC)          (F)  (DEG/KT/KT) (MB)    (MI)
HARRISON CRIB    1300            70  190/ 32/ 44   N/A
BURNHAM HARBOR   1400            73  210/ 18/ 24   N/A
CALUMET HARBOR   1300            71  190/ 13/ 19   N/A
BURNS HARBOR     1325            72  200/ 17/ 26 1012.5R
MICHIGAN CITY    1300            72  170/ 20/ 25   N/A
$$

ABBREVIATIONS USED IN REMARKS
   TC - TEMPERATURE IN CELSIUS
  WCI - WIND CHILL INDEX
   HX - HEAT INDEX
  VSB - VISIBILITY
$$


USA.gov is the U.S. government's official web portal to all federal, state and local government web resources and services.